Location: Dackenheim
(49.5215°N, 8.1854°E)
Time: 02:06:48
(UTC+00:00)

AO-85 - Pass Details

Date: 23 March 2026
Orbit: 507 x 686 km, 64.8° (Epoch: 12 April)

Event Time Altitude Azimuth Distance (km) Brightness Sun altitude
Exits shadow 03:48:45 15° 306° (NW) 1,472 ? -15.9°
Maximum altitude 03:50:06 17° 331° (NNW) 1,352 ? -15.7°
Drops below altitude 10° 03:52:42 10° 14° (NNE) 1,734 ? -15.3°
Sets 03:55:29 0° 35° (NE) 2,620 ? -14.9°
